Погода в Красном Стекловаре

Россия / Республика Марий Эл     56°13′20″N   48°47′27″E
темп.,
°C
ветер,
м/с
пор.,
м/с
влажн.,
%
обл.,
%
осадки,
мм/ч
давл.,
гПа
погр.,
м
24 сентября, пт
пт2400:00+8юв61490100 2.1 1018900
03:00+8вюв51294100 4.4 1017645
06:00+8юв61394100 0.7 1015754
09:00+8юв51293100 1.3 1015579
12:00+9юв51283100 0.1 1015609
15:00+10ююв51175100 0.1 1014645
18:00+8ююв51296100 2.3 1014643
21:00+8ююв61393100 4.9 1014760
25 сентября, сб
сб2500:00+8ююв51295100 1.3 1014672
03:00+7юв51095100 2.8 1013447
06:00+7юв41094100 0.4 1012531
09:00+7вюв3892100 0.4 1012498
12:00+8вюв3491100 0.0 1012467
15:00+9вюв2489100 0.1 1012414
18:00+8в2493100 0.0 1012163
21:00+7всв119398 0.0 101228
26 сентября, вс
вс2600:00+5всв1195100 0.0 101111
03:00+5св2294100 0.0 101124
06:00+6св2291100 0.0 101081
09:00+9св2374100 0.0 1009318
12:00+12св2264100 0.0 1009722
15:00+10всв4580100 0.1 1009372
18:00+8ссв2690100 0.1 1009249
21:00+8св4891100 0.1 1009353
27 сентября, пн
пн2700:00+8св3795100 0.0 1010357
03:00+8св4895100 0.0 1011459
06:00+7всв51183100 0.0 1012564
09:00+8всв61183100 0.0 1014757
12:00+8всв6969100 0.0 1017880
15:00+5всв51089100 0.3 1020587
18:00+5св4117373 0.0 1022462
21:00+5св41170100 0.0 1024439
28 сентября, вт
вт2800:00+2св410755 0.0 1025298
03:00+1св398411 0.0 1027214
06:000св3786100 0.0 1028185
09:00+5св466172 0.0 1030525
12:00+9св3347100 0.0 10291066
15:00+9ссв3446100 0.0 10291225
18:00+5ссв236696 0.0 103039
21:00+2ссв22745 0.0 103133